[[{"header":{"parameterUnit":"m.s-1","parameterCategory":1,"la1":30.2991,"la2":30.254,"lo1":-89.0895,"lo2":-89.0444,"dy":0.0017,"dx":0.0017,"nx":28,"ny":28,"refTime":"2024-08-26T09:00:00:Z","depth":0,"parameterNumber":2,"parameterNumberName":"U-component_of_WINDS"},"data":[0,0,0,0,0,0,0,0,0,0,0,0,0,0,0,0,0,0,0,0,0,0,0,0,0,0,0,0,0,0,0,0,0,0,0,0,0,0,0,0,0,0,0,0,0,0,0,0,0,0,0,0,0,0,0,0,0,0,-1.7077,-1.7077,0,-1.7093,-1.7094,-1.7094,-1.7044,-1.7043,-1.7041,-1.704,-1.7057,-1.7059,-1.706,0,0,0,0,0,0,0,0,0,0,0,0,0,-1.7003,-1.7005,-1.7077,-1.7077,-1.7078,-1.7093,-1.7094,-1.7094,-1.7045,-1.7043,-1.7041,-1.7039,-1.7056,-1.7058,-1.7061,0,0,0,0,0,0,0,0,0,0,0,0,0,-1.7029,-1.7006,-1.7077,-1.7055,-1.7053,-1.7093,-1.7094,-1.7094,-1.7045,-1.7043,-1.7041,-1.7038,-1.7055,-1.7058,-1.7061,-1.7124,0,0,-1.7069,-1.7071,0,0,0,0,0,0,0,0,-1.7028,-1.7032,-1.7058,-1.7056,-1.7055,-1.7065,-1.7074,-1.7104,-1.7046,-1.7048,-1.704,-1.7037,-1.7061,-1.7063,-1.7071,-1.7124,-1.7125,-1.707,-1.7071,-1.7073,-1.7073,0,0,0,0,0,0,0,-1.7026,-1.7031,-1.7084,-1.7058,-1.7056,-1.7044,-1.7045,-1.7079,-1.7067,-1.7048,-1.7044,-1.7047,-1.706,-1.7069,-1.7071,-1.7125,-1.707,-1.7072,-1.7074,-1.7075,-1.723,-1.7233,0,0,0,0,0,0,-1.7027,-1.703,-1.7083,-1.7084,-1.7035,-1.7047,-1.7049,-1.7064,-1.7067,-1.7065,-1.7049,-1.7044,-1.7065,-1.7068,-1.7072,-1.7145,-1.7073,-1.7075,-1.7077,-1.7228,-1.7231,-1.7233,0,0,0,0,0,0,-1.7026,-1.7032,-1.7082,-1.7056,-1.7061,-1.7051,-1.7068,-1.7065,-1.7074,-1.7067,-1.7065,-1.706,-1.7064,-1.7068,-1.7111,-1.7145,-1.7076,-1.7079,-1.7225,-1.7229,-1.7232,-1.7292,0,0,0,0,0,0,-1.7024,-1.7032,-1.7056,-1.7057,-1.7063,-1.7121,-1.707,-1.7067,-1.7079,-1.7074,-1.7078,-1.7076,-1.7062,-1.7107,-1.7114,-1.7148,-1.7081,-1.7222,-1.7227,-1.7231,-1.7287,-1.7298,-1.7307,0,0,0,0,0,-1.7021,-1.7072,-1.7057,-1.7064,-1.7092,-1.7123,-1.7127,-1.711,-1.7082,-1.7106,-1.7101,-1.7076,-1.714,-1.7112,-1.7119,-1.7154,-1.722,-1.7225,-1.7231,-1.7283,-1.7296,-1.7306,0,0,0,0,0,0,-1.7075,-1.7072,-1.7055,-1.7108,-1.7116,-1.7115,-1.7144,-1.7124,-1.714,-1.7135,-1.7113,-1.7114,-1.7161,-1.7162,-1.713,-1.7215,-1.7175,-1.7182,-1.7213,-1.7225,-1.7234,-1.7233,-1.7083,0,0,0,0,0,-1.7093,-1.7119,-1.7114,-1.7161,-1.7166,-1.7155,-1.7168,-1.7154,-1.7162,-1.7165,-1.7164,-1.7173,-1.7195,-1.721,-1.723,-1.7287,-1.7288,-1.7315,-1.7325,-1.7333,-1.7339,-1.737,-1.7382,-1.7252,-1.7252,-1.7251,0,0,-1.7131,-1.7132,-1.715,-1.7172,-1.7177,-1.7204,-1.7158,-1.7189,-1.7208,-1.717,-1.721,-1.721,-1.7218,-1.7269,-1.7291,-1.7271,-1.7375,-1.734,-1.7346,-1.7348,-1.7377,-1.7389,-1.74,-1.7255,-1.7255,-1.7254,0,0,-1.7213,-1.7217,-1.7256,-1.7262,-1.727,-1.7262,-1.7271,-1.7273,-1.7271,-1.7312,-1.7283,-1.7307,-1.7345,-1.7352,-1.7361,-1.7446,-1.7423,-1.7453,-1.7503,-1.7533,-1.7544,-1.7553,-1.7583,-1.7594,-1.746,-1.746,-1.746,0,-1.7258,-1.7298,-1.7279,-1.7311,-1.7322,-1.7288,-1.7328,-1.7335,-1.7349,-1.7357,-1.7335,-1.7382,-1.7386,-1.7437,-1.7458,-1.7466,-1.7477,-1.7452,-1.7544,-1.7552,-1.7561,-1.7589,-1.7601,-1.7463,-1.7463,-1.7463,-1.7462,0,-1.7353,-1.7381,-1.7412,-1.7426,-1.7441,-1.7477,-1.7463,-1.748,-1.7465,-1.746,-1.7501,-1.7504,-1.7524,-1.7535,-1.7521,-1.7585,-1.7572,-1.7547,-1.7507,-1.7577,-1.7603,-1.7614,-1.7469,-1.7467,-1.7466,-1.7465,0,0,-1.7469,-1.7473,-1.7485,-1.7491,-1.7497,-1.7518,-1.7553,-1.7572,-1.7587,-1.7598,-1.7627,-1.766,-1.7637,-1.7647,-1.7633,-1.766,-1.7727,-1.7631,-1.7631,-1.7648,-1.7797,-1.7816,-1.7829,-1.7712,-1.7714,-1.7715,-1.7797,0,-1.755,-1.7609,-1.7593,-1.7652,-1.7677,-1.7646,-1.7676,-1.7683,-1.7679,-1.77,-1.7695,-1.7719,-1.7687,-1.7692,-1.7717,-1.7713,-1.7756,-1.7707,-1.7738,-1.7739,-1.7736,-1.7843,-1.7863,-1.794,-1.7807,-1.7809,-1.781,0,-1.7652,-1.7667,-1.7728,-1.773,-1.774,-1.7767,-1.7784,-1.7805,-1.7812,-1.7807,-1.7819,-1.78,-1.7834,-1.7794,-1.784,-1.7807,-1.7819,-1.7819,-1.7822,-1.7824,-1.7779,-1.7848,-1.7964,-1.7975,-1.7826,-1.7825,-1.7824,0,-1.773,-1.7766,-1.7807,-1.7813,-1.7817,-1.7837,-1.7839,-1.7844,-1.7857,-1.7872,-1.788,-1.7899,-1.7909,-1.7924,-1.791,-1.7882,-1.7959,-1.7918,-1.7956,-1.7957,-1.7973,-1.7972,-1.8093,-1.7982,-1.7981,-1.7981,-1.7981,0,-1.7822,-1.786,-1.7842,-1.7867,-1.791,-1.7891,-1.7934,-1.7933,-1.7938,-1.7963,-1.7937,-1.796,-1.7941,-1.7964,-1.7954,-1.7994,-1.7999,-1.7996,-1.7992,-1.7998,-1.7998,-1.8005,-1.7999,-1.7984,-1.7984,-1.7983,-1.7982,0,-1.7916,-1.7905,-1.7948,-1.7948,-1.7949,-1.7981,-1.798,-1.8004,-1.7998,-1.803,-1.8036,-1.8027,-1.8051,-1.804,-1.8066,-1.8059,-1.8111,-1.81,-1.8108,-1.8105,-1.8144,-1.8141,-1.8273,-1.8289,-1.8168,-1.8169,-1.817,0,-1.7975,-1.8004,-1.8007,-1.8022,-1.8026,-1.805,-1.8063,-1.8046,-1.806,-1.8071,-1.8093,-1.8116,-1.8133,-1.8174,-1.817,-1.819,-1.818,-1.8224,-1.8182,-1.8187,-1.818,-1.8179,-1.8181,-1.8233,-1.8234,-1.8235,-1.8236,0,-1.8081,-1.8074,-1.8094,-1.8112,-1.8128,-1.8141,-1.8152,-1.8165,-1.8148,-1.8166,-1.8191,-1.8204,-1.8231,-1.8253,-1.8271,-1.8273,-1.8253,-1.825,-1.826,-1.8265,-1.8269,-1.8267,-1.8131,-1.8247,-1.8246,-1.8245,-1.8244,-1.8244,-1.816,-1.8184,-1.819,-1.8212,-1.8219,-1.823,-1.8252,-1.8249,-1.8269,-1.8289,-1.8278,-1.8307,-1.8314,-1.8335,-1.834,-1.8363,-1.8345,-1.836,-1.8363,-1.8367,-1.8372,-1.8265,-1.8366,-1.8366,-1.8366,-1.8365,-1.8365,0,-1.8264,-1.8266,-1.8287,-1.8303,-1.8321,-1.83,-1.8311,-1.8327,-1.8353,-1.8361,-1.8378,-1.8407,-1.8429,-1.8427,-1.8447,-1.8466,-1.8456,-1.8471,-1.847,-1.8471,-1.8387,-1.8376,-1.8478,-1.8478,-1.8478,-1.8478,-1.8478,-1.8478,-1.8321,-1.8361,-1.8355,-1.8398,-1.8399,-1.8428,-1.8436,-1.8446,-1.8452,-1.8485,-1.8503,-1.8501,-1.8505,-1.8526,-1.8545,-1.8544,-1.8552,-1.8571,-1.8566,-1.8488,-1.8477,-1.8466,-1.8456,-1.8573,-1.8573,-1.8648,-1.8649,-1.8649]},{"header":{"parameterUnit":"m.s-1","parameterCategory":1,"la1":30.2991,"la2":30.254,"lo1":-89.0895,"lo2":-89.0444,"dy":0.0017,"dx":0.0017,"nx":28,"ny":28,"refTime":"2024-08-26T09:00:00:Z","depth":0,"parameterNumber":3,"parameterNumberName":"V-component_of_WINDS"},"data":[0,0,0,0,0,0,0,0,0,0,0,0,0,0,0,0,0,0,0,0,0,0,0,0,0,0,0,0,0,0,0,0,0,0,0,0,0,0,0,0,0,0,0,0,0,0,0,0,0,0,0,0,0,0,0,0,0,0,2.2011,2.2011,0,2.1986,2.1986,2.1986,2.1948,2.1947,2.1947,2.1946,2.192,2.192,2.192,0,0,0,0,0,0,0,0,0,0,0,0,0,2.2027,2.2027,2.2011,2.2011,2.2011,2.1986,2.1986,2.1986,2.1948,2.1947,2.1947,2.1946,2.192,2.192,2.192,0,0,0,0,0,0,0,0,0,0,0,0,0,2.2013,2.2027,2.2011,2.1989,2.1987,2.1986,2.1986,2.1986,2.1948,2.1947,2.1946,2.1946,2.192,2.192,2.192,2.1939,0,0,2.1919,2.1919,0,0,0,0,0,0,0,0,2.2014,2.2012,2.1993,2.1991,2.1988,2.1969,2.1982,2.197,2.1949,2.1963,2.1946,2.1945,2.1937,2.1936,2.1933,2.1938,2.1936,2.1919,2.1919,2.1919,2.1919,0,0,0,0,0,0,0,2.2015,2.2013,2.2001,2.1993,2.199,2.198,2.1977,2.1979,2.1956,2.1962,2.1959,2.1957,2.1936,2.1933,2.1932,2.1936,2.1919,2.1919,2.1919,2.1919,2.1954,2.1955,0,0,0,0,0,0,2.2019,2.2014,2.2002,2.2001,2.1999,2.1981,2.1977,2.1976,2.1956,2.1952,2.1957,2.1955,2.1934,2.1932,2.1931,2.1951,2.1919,2.1919,2.1919,2.1953,2.1954,2.1956,0,0,0,0,0,0,2.2019,2.2018,2.2003,2.2007,2.2004,2.1982,2.1981,2.1976,2.1974,2.1953,2.1948,2.1959,2.1933,2.1931,2.1937,2.195,2.1919,2.1919,2.1952,2.1954,2.1955,2.1992,0,0,0,0,0,0,2.202,2.2019,2.2026,2.2007,2.2004,2.201,2.1982,2.1977,2.1974,2.197,2.1953,2.1949,2.1932,2.1937,2.1937,2.1949,2.1919,2.1951,2.1953,2.1955,2.1989,2.1994,2.1999,0,0,0,0,0,2.2021,2.2037,2.2026,2.2025,2.2012,2.2011,2.2009,2.1989,2.1975,2.1982,2.1968,2.195,2.1949,2.1938,2.1937,2.195,2.195,2.1952,2.1954,2.1987,2.1993,2.1999,0,0,0,0,0,0,2.2057,2.2034,2.2022,2.2033,2.2024,2.2004,2.2012,2.1996,2.1991,2.1988,2.1964,2.196,2.1969,2.196,2.1949,2.1967,2.1946,2.1949,2.1972,2.1977,2.1982,2.1983,2.1919,0,0,0,0,0,2.2067,2.2067,2.2047,2.2059,2.2055,2.2035,2.2033,2.2019,2.2009,2.2005,2.1991,2.1982,2.1979,2.1978,2.1975,2.1989,2.1984,2.1997,2.2001,2.2005,2.2007,2.2013,2.2018,2.1963,2.1963,2.1963,0,0,2.2086,2.2073,2.2075,2.2066,2.2057,2.2058,2.2032,2.2034,2.2034,2.2005,2.2009,2.1999,2.1987,2.1997,2.2001,2.199,2.2021,2.2008,2.2011,2.2011,2.2015,2.2021,2.2025,2.1965,2.1964,2.1964,0,0,2.2121,2.2112,2.212,2.2112,2.21,2.2086,2.2089,2.2072,2.2064,2.2068,2.2046,2.2046,2.2043,2.2035,2.203,2.2064,2.2046,2.2063,2.2087,2.2093,2.2097,2.2101,2.2112,2.2116,2.2065,2.2065,2.2065,0,2.2146,2.2147,2.2126,2.213,2.2126,2.21,2.2108,2.2102,2.2089,2.2087,2.2075,2.207,2.206,2.2067,2.2076,2.2073,2.2074,2.2064,2.2098,2.2102,2.2105,2.2115,2.2119,2.2067,2.2067,2.2067,2.2067,0,2.2178,2.2179,2.2187,2.2175,2.2173,2.2179,2.2159,2.2159,2.2145,2.2133,2.2137,2.2125,2.2118,2.2119,2.2106,2.2124,2.2118,2.2103,2.2082,2.2113,2.2121,2.2125,2.207,2.207,2.2069,2.2069,0,0,2.2234,2.2211,2.2215,2.2209,2.2194,2.2194,2.2199,2.2192,2.2192,2.2185,2.2188,2.2186,2.2172,2.2167,2.2152,2.2158,2.2183,2.2142,2.2141,2.2149,2.2202,2.2212,2.2217,2.2173,2.2173,2.2174,2.2202,0,2.2265,2.2271,2.2253,2.2264,2.2264,2.2241,2.2245,2.2236,2.2225,2.2223,2.2211,2.2209,2.2192,2.2188,2.2193,2.2179,2.2194,2.2177,2.2174,2.2174,2.2176,2.2222,2.2232,2.226,2.2206,2.2206,2.2207,0,2.2301,2.2295,2.2307,2.2291,2.229,2.2294,2.2287,2.2286,2.2276,2.2267,2.2262,2.2245,2.2249,2.223,2.2233,2.2223,2.2221,2.2214,2.2215,2.2212,2.2191,2.2219,2.2268,2.2272,2.2212,2.2212,2.2212,0,2.2339,2.2335,2.234,2.2336,2.2318,2.2322,2.2314,2.2303,2.23,2.2294,2.2292,2.2287,2.2283,2.2279,2.2261,2.225,2.2267,2.2247,2.2259,2.2259,2.2262,2.2262,2.231,2.2264,2.2264,2.2263,2.2263,0,2.2374,2.2382,2.2357,2.236,2.2368,2.2348,2.2356,2.2346,2.2336,2.2337,2.2317,2.2318,2.2295,2.2294,2.228,2.2285,2.2284,2.2276,2.2272,2.2277,2.2278,2.2274,2.2271,2.2265,2.2264,2.2264,2.2264,0,2.2417,2.2401,2.2406,2.2389,2.2385,2.2391,2.2376,2.2378,2.2367,2.2368,2.2367,2.2348,2.2345,2.2328,2.2321,2.2312,2.2321,2.2314,2.2325,2.2322,2.2334,2.2333,2.2381,2.2385,2.2337,2.2338,2.2338,0,2.244,2.2445,2.2429,2.2428,2.2422,2.2421,2.2418,2.2399,2.2397,2.2386,2.2389,2.2385,2.238,2.2377,2.2363,2.2358,2.2349,2.2367,2.2348,2.2353,2.2348,2.2347,2.2347,2.237,2.237,2.2371,2.2371,0,2.2482,2.2474,2.2471,2.2465,2.2463,2.2457,2.2451,2.2451,2.243,2.2429,2.2426,2.2422,2.2416,2.2411,2.2404,2.2396,2.238,2.2378,2.238,2.2384,2.2389,2.2385,2.2333,2.2376,2.2376,2.2375,2.2375,2.2375,2.2514,2.2518,2.2507,2.2504,2.2497,2.2492,2.2493,2.2481,2.2479,2.2472,2.2461,2.2459,2.2449,2.2437,2.243,2.2429,2.2419,2.2423,2.2424,2.2424,2.2427,2.2391,2.2427,2.2427,2.2427,2.2427,2.2427,0,2.2554,2.2546,2.2544,2.2535,2.2533,2.252,2.2511,2.251,2.2509,2.2501,2.2497,2.2494,2.249,2.2475,2.247,2.2471,2.2463,2.247,2.2469,2.2467,2.2436,2.2434,2.2476,2.2476,2.2476,2.2476,2.2476,2.2476,2.2574,2.2579,2.257,2.257,2.2562,2.2561,2.2557,2.2552,2.2545,2.2542,2.2539,2.253,2.2519,2.2512,2.2508,2.2503,2.2502,2.251,2.2504,2.2474,2.2469,2.2465,2.2463,2.2511,2.2511,2.2535,2.2535,2.2535]}]]